Tracking 21076 objects as of 9-Aug-2020
HD Live streaming from Space Station
objects crossing your sky now
Track the most recent launched group of Starlink satellites

OPS 1948

Track OPS 1948 now!
OPS 1948 is classified as:


NORAD ID: 11558
Int'l Code: 1979-086A
Perigee: 30,500.4 km
Apogee: 41,133.3 km
Inclination: 6.0 °
Period: 1,437.3 minutes
Semi major axis: 42187 km
RCS: Unknown
Launch date: October 1, 1979
Source: United States (US)
Launch site: AIR FORCE EASTERN TEST RANGE (AFETR)
aabbcc
Your satellite tracking list
Your tracking list is empty




NASA's NSSDC Master Catalog

Two Line Element Set (TLE):
1 11558U 79086A   20221.63741483 +.00000050 +00000-0 +00000-0 0  9998
2 11558 005.9890 354.2587 1260192 057.3345 338.9867 01.00189416004777
Source of the keplerian elements: McCants